Back to catalog

STARLINK-31333

AliveCommunicationsVLEO
NORAD 58971·PAYLOAD·🇺🇸 United States

Launched Feb 15, 2024 from Vandenberg Space Force Base

Loading…

Next Passes (next 24 hours)

TLE

FreshSource: CelesTrak SupGP

Epoch: Sep 14, 2026, 21:32 UTC

1 58971C 24031G   26257.89770833 -.00007823  00000+0 -23129-3 0  2575
2 58971  53.1574 123.5467 0001440  76.7541 265.6898 15.34372969    18

Track STARLINK-31333 in real time with AllMySat

Download on the App Store